Location: Campbell Lake
(32.1204°N, 97.6289°W)
Time: 01:57:27
(UTC+00:00)

ARIANE 6 FM1 Upper Stage - Pass Details

Date: 17 December 2025
Orbit: 522 x 610 km, 62.0° (Epoch: 16 January)

Event Time Altitude Azimuth Distance (km) Brightness Sun altitude
Exits shadow 12:57:41 - 279° (W) 2,069 4.9 -6.1°
Maximum altitude 13:00:23 11° 314° (NW) 1,730 4.6 -5.6°
Drops below altitude 10° 13:01:25 10° 329° (NNW) 1,779 4.7 -5.4°
Sets 13:05:19 0° 8° (N) 2,659 5.9 -4.6°
